Find Zhangheng 1-02

NORAD ID: 64393 Int'l Des: 2025-128 Owner: CAS Country: CN operational
LEOCIRCULARRETROGRADESSO

当前视图

正在加载3D地球...

关于 Zhangheng 1-02

正在加载描述...

即将过境

Passes for default location (London). Set your location on the main map for personalized predictions.

高度历史

Loading altitude history...

两行轨道根数

1 64393U 25128A 26149.82905213 -.00000074 00000-0 -28163-6 0 9994
2 64393 97.3573 277.0419 0012962 171.2192 188.9273 15.20972928 53139
Epoch: May 29, 2026 • Age: 9 hours

当前状态

高度 516.7 km
速度 7.60 km/s
星下点 -9.57°S, 49.01°W
发射日期 Jun 14, 2025
运行时间 0.9 years
类型 other

技术详情

分类 Payload
质量 730.00 kg
干质量 700.00 kg
总质量 730.00 kg
长度 1.40 m
直径 1.00 m
跨度 4.00 m
形状 Box+2 pan
制造商 DFHZ
平台类型 CAST-2000
阶段状态 In Orbit
所有者/国家 CAS/CN

Most Searched